Date_and_time,latitude,longitude,wind_speed,RelWindDirFrom,WindDirFrom,air_pressure,air_temperature,relative_humidity,Temp,platform_speed_wrt_ground,air_pressure_at_mean_sea_level,platform_orientation
2018-08-24 23:40,50.630445,-96.9807666666667,6.5,8.5,6,980.09,20.6,75,20.09,0.0,1005.81,360.0
2018-08-24 23:50,50.630445,-96.9807683333333,6.3,7.7,4,980.11,20.6,76,20.10,0.0,1005.82,360.0
2018-08-25 00:00,50.6304366666667,-96.9807666666667,6.4,8.4,359,980.16,20.5,77,20.11,0.0,1005.87,360.0
2018-08-25 00:10,50.6304433333333,-96.9807766666667,7.2,8.4,353,980.10,20.6,72,20.13,0.0,1005.80,360.0
2018-08-25 00:20,50.6304433333333,-96.9807783333333,6.4,7.8,3,980.08,20.7,73,20.14,0.0,1005.77,360.0
2018-08-25 00:30,50.6304433333333,-96.980775,6.8,8.1,8,980.10,20.7,72,20.14,0.0,1005.79,360.0
2018-08-25 00:40,50.6304433333333,-96.980775,6.6,7.7,3,980.10,20.8,68,20.15,0.0,1005.78,360.0
2018-08-25 00:50,50.63042,-96.9807716666667,6.1,7.6,1,980.05,20.8,67,20.15,0.0,1005.72,360.0
2018-08-25 01:00,50.6304383333333,-96.9807683333333,5.4,6.9,353,979.99,20.8,66,20.15,0.0,1005.65,90.0
2018-08-25 01:10,50.6304433333333,-96.9807716666667,5.5,6.6,356,979.97,20.8,67,20.15,0.0,1005.64,90.0
2018-08-25 01:20,50.630445,-96.980775,5.2,6.8,344,979.95,20.7,67,20.15,0.0,1005.62,90.0
2018-08-25 01:30,50.630445,-96.9807716666667,4.0,5.6,332,980.06,20.6,66,20.15,0.0,1005.74,90.0
2018-08-25 01:40,50.630445,-96.98077,4.0,7.2,326,980.07,20.4,67,20.15,0.0,1005.76,90.0
2018-08-25 01:50,50.6304433333333,-96.9807716666667,4.3,6.4,338,980.01,20.5,67,20.15,0.0,1005.69,90.0
2018-08-25 02:00,50.6304516666667,-96.9807616666667,4.5,5.9,345,979.99,20.5,68,20.14,0.0,1005.68,90.0
2018-08-25 02:10,50.6304466666667,-96.980765,4.0,7.0,351,980.05,20.5,70,20.15,0.0,1005.73,90.0
2018-08-25 02:20,50.6304466666667,-96.980765,3.3,4.0,3,980.10,20.4,72,20.15,0.0,1005.79,90.0
2018-08-25 02:30,50.6304483333333,-96.9807633333333,3.5,4.8,350,980.18,20.2,72,20.15,0.0,1005.88,90.0
2018-08-25 02:40,50.6304483333333,-96.9807616666667,3.4,5.0,348,980.27,20.1,73,20.16,0.0,1005.97,90.0
2018-08-25 02:50,50.6304383333333,-96.9807583333333,4.1,5.4,24,980.12,20.1,76,20.16,0.0,1005.81,90.0
2018-08-25 03:00,50.6304716666667,-96.9807633333333,5.3,5.9,39,980.05,20.3,81,20.16,0.0,1005.74,360.0
2018-08-25 03:10,50.6304216666667,-96.9807583333333,5.7,6.6,54,979.98,20.4,89,20.16,0.0,1005.66,360.0
2018-08-25 03:20,50.630445,-96.9807683333333,5.1,6.0,59,980.06,20.6,92,20.16,0.0,1005.74,360.0
2018-08-25 03:30,50.63044,-96.98076,4.9,6.0,73,980.10,20.6,93,20.16,0.0,1005.79,360.0
2018-08-25 03:40,50.63044,-96.9807633333333,4.4,5.3,76,980.12,20.8,90,20.16,0.0,1005.80,360.0
2018-08-25 03:50,50.63044,-96.9807616666667,3.5,4.8,86,980.18,20.9,85,20.16,0.0,1005.86,360.0
2018-08-25 04:00,50.63044,-96.9807633333333,3.0,4.2,89,980.23,21.0,81,20.16,0.0,1005.91,0.0
2018-08-25 04:10,50.63044,-96.9807633333333,2.5,3.4,104,980.30,21.1,78,20.17,0.0,1005.97,0.0
2018-08-25 04:20,50.63044,-96.9807633333333,2.4,3.5,89,980.27,21.1,78,20.17,0.0,1005.96,0.0
2018-08-25 04:30,50.6304383333333,-96.9807633333333,3.2,4.9,92,980.26,21.0,79,20.17,0.0,1005.95,0.0
2018-08-25 04:40,50.6304383333333,-96.980765,4.4,5.1,99,980.22,20.9,80,20.17,0.0,1005.91,0.0
2018-08-25 04:50,50.6304366666667,-96.9807633333333,4.4,5.2,100,980.23,20.9,80,20.17,0.0,1005.92,0.0
2018-08-25 05:00,50.630435,-96.9807633333333,4.3,5.8,112,980.21,20.9,79,20.17,0.0,1005.89,360.0
2018-08-25 05:10,50.630435,-96.9807633333333,5.5,6.7,119,980.21,21.0,77,20.17,0.0,1005.88,360.0
2018-08-25 05:20,50.6304316666667,-96.98077,4.2,5.8,138,980.20,20.6,81,20.17,0.0,1005.88,360.0
2018-08-25 05:30,50.6304366666667,-96.98077,5.3,6.9,146,980.19,20.2,80,20.17,0.0,1005.88,360.0
2018-08-25 05:40,50.6304366666667,-96.9807716666667,5.3,7.0,154,980.24,20.2,80,20.17,0.0,1005.93,360.0
2018-08-25 05:50,50.6304383333333,-96.98077,5.3,7.0,158,980.26,20.2,81,20.17,0.0,1005.95,360.0
2018-08-25 06:00,50.6304383333333,-96.9807716666667,5.5,8.4,158,980.22,20.1,84,20.17,0.0,1005.91,360.0
2018-08-25 06:10,50.63046,-96.980775,6.2,8.6,160,980.19,20.0,85,20.17,0.0,1005.88,360.0
2018-08-25 06:20,50.630445,-96.9807716666667,7.8,10.2,156,980.14,20.0,83,20.17,0.0,1005.83,360.0
2018-08-25 06:30,50.6304433333333,-96.9807733333333,7.2,9.4,171,980.13,20.0,86,20.16,0.0,1005.83,360.0
2018-08-25 06:40,50.6304466666667,-96.980775,7.7,9.5,176,980.07,19.6,86,20.16,0.0,1005.78,360.0
2018-08-25 06:50,50.63046,-96.98076,7.7,9.3,171,979.99,19.3,86,20.16,0.0,1005.72,360.0
2018-08-25 07:00,50.6304533333333,-96.980765,7.2,8.5,175,980.00,19.0,88,20.16,0.0,1005.73,38.0
2018-08-25 07:10,50.6304716666667,-96.9807716666667,8.3,9.3,176,980.07,18.8,87,20.16,0.0,1005.83,38.0
2018-08-25 07:20,50.6304533333333,-96.9807716666667,7.9,9.8,177,980.02,18.5,88,20.15,0.0,1005.82,38.0
2018-08-25 07:30,50.6304483333333,-96.9807716666667,8.2,10.1,171,980.01,18.5,89,20.14,0.0,1005.80,38.0
2018-08-25 07:40,50.6304466666667,-96.9807666666667,8.9,11.4,174,979.91,18.5,90,20.14,0.0,1005.70,38.0
2018-08-25 07:50,50.630445,-96.9807633333333,9.2,13.1,175,979.81,18.4,91,20.13,0.0,1005.60,38.0
2018-08-25 08:00,50.63044,-96.98077,9.1,10.4,177,979.76,18.3,92,20.13,0.0,1005.56,360.0
2018-08-25 08:10,50.630445,-96.980755,9.1,10.5,185,979.73,18.4,92,20.13,0.0,1005.53,360.0
2018-08-25 08:20,50.6304533333333,-96.98076,8.2,10.3,184,979.73,18.5,91,20.12,0.0,1005.53,360.0
2018-08-25 08:30,50.6304483333333,-96.9807633333333,6.9,8.8,185,979.84,18.5,90,20.11,0.0,1005.65,360.0
2018-08-25 08:40,50.630445,-96.980765,7.3,11.0,188,979.89,18.8,88,20.10,0.0,1005.70,360.0
2018-08-25 08:50,50.630445,-96.9807633333333,10.0,13.9,190,979.86,19.0,86,20.09,0.0,1005.68,360.0
2018-08-25 09:00,50.630445,-96.9807633333333,10.9,14.8,194,979.85,19.0,86,20.08,0.0,1005.68,90.0
2018-08-25 09:10,50.630445,-96.9807633333333,11.2,13.9,187,979.81,18.8,86,20.08,0.0,1005.66,90.0
2018-08-25 09:20,50.6304466666667,-96.980765,9.5,13.1,183,979.92,18.5,89,20.07,0.0,1005.79,90.0
2018-08-25 09:30,50.6304566666667,-96.9807633333333,8.7,11.8,192,979.88,18.3,90,20.06,0.0,1005.76,90.0
2018-08-25 09:40,50.6304533333333,-96.9807616666667,8.7,11.3,194,979.90,18.2,90,20.04,0.0,1005.78,90.0
2018-08-25 09:50,50.6304516666667,-96.9807633333333,8.9,11.3,197,980.03,18.1,90,20.03,0.0,1005.92,90.0
2018-08-25 10:00,50.6304316666667,-96.9807616666667,9.2,13.1,195,980.03,18.1,90,20.02,0.0,1005.92,152.4
2018-08-25 10:10,50.63044,-96.98076,9.0,12.3,193,979.92,17.9,91,20.02,0.0,1005.82,152.4
2018-08-25 10:20,50.6304416666667,-96.9807566666667,10.2,13.2,187,979.80,17.8,93,20.00,0.0,1005.69,152.4
2018-08-25 10:30,50.6304416666667,-96.98076,9.9,12.9,186,979.81,17.5,94,20.00,0.0,1005.70,152.4
2018-08-25 10:40,50.6304483333333,-96.98076,9.4,12.3,178,979.62,17.7,94,20.00,0.0,1005.50,152.4
2018-08-25 10:50,50.630445,-96.9807516666667,10.3,11.8,176,979.59,17.9,93,19.99,0.0,1005.45,152.4
2018-08-25 11:00,50.6304433333333,-96.980755,11.0,13.0,171,979.53,18.2,92,19.98,0.0,1005.38,90.0
2018-08-25 11:10,50.630445,-96.9807766666667,9.3,10.7,176,979.70,18.3,94,19.98,0.0,1005.57,90.0
2018-08-25 11:20,50.6304416666667,-96.980765,9.1,10.9,169,979.67,18.2,94,19.97,0.0,1005.55,90.0
2018-08-25 11:30,50.6304466666667,-96.9808016666667,10.0,12.1,167,979.57,18.4,92,19.97,0.0,1005.44,90.0
2018-08-25 11:40,50.63044,-96.9807783333333,10.8,13.4,164,979.42,18.4,94,19.97,0.0,1005.29,90.0
2018-08-25 11:50,50.63044,-96.9807766666667,11.3,13.4,169,979.46,18.3,94,19.98,0.0,1005.35,90.0
2018-08-25 12:00,50.6304416666667,-96.980775,10.8,13.0,165,979.40,18.2,95,19.96,0.0,1005.29,270.0
2018-08-25 12:10,50.63044,-96.9807733333333,11.2,13.8,163,979.29,18.3,96,19.95,0.0,1005.18,270.0
2018-08-25 12:20,50.63044,-96.9807733333333,12.8,15.2,163,979.15,18.4,95,19.95,0.0,1005.04,270.0
2018-08-25 12:30,50.6304366666667,-96.980755,12.8,14.7,171,979.17,18.3,94,19.94,0.0,1005.06,270.0
2018-08-25 12:40,50.63044,-96.9807666666667,9.4,12.1,185,979.45,18.2,95,19.93,0.0,1005.34,270.0
2018-08-25 12:50,50.6304433333333,-96.9807666666667,9.1,12.7,187,979.51,18.3,93,19.92,0.0,1005.38,270.0
2018-08-25 13:00,50.6304416666667,-96.980765,12.1,17.2,194,979.60,18.7,90,19.91,0.0,1005.46,318.7
2018-08-25 13:10,50.630445,-96.9807683333333,11.9,15.8,195,979.78,18.7,90,19.91,0.0,1005.65,318.7
2018-08-25 13:20,50.630445,-96.9807666666667,11.0,16.6,196,979.91,18.6,90,19.90,0.0,1005.78,318.7
2018-08-25 13:30,50.630445,-96.9807666666667,10.1,14.1,202,980.05,18.6,89,19.89,0.0,1005.92,318.7
2018-08-25 13:40,50.630445,-96.9807666666667,10.5,16.1,202,980.10,18.7,88,19.89,0.0,1005.97,318.7
2018-08-25 13:50,50.6304466666667,-96.9807666666667,7.5,10.9,203,980.08,18.8,88,19.89,0.0,1005.95,318.7
2018-08-25 14:00,50.630445,-96.9807666666667,7.4,10.3,210,980.20,19.1,85,19.89,0.0,1006.06,270.0
2018-08-25 14:10,50.63045,-96.9807816666667,6.9,10.1,212,980.38,19.5,83,19.90,0.0,1006.22,270.0
2018-08-25 14:20,50.6304466666667,-96.9807733333333,7.2,9.7,218,980.54,19.8,81,19.91,0.0,1006.37,270.0
2018-08-25 14:30,50.630445,-96.9807733333333,7.6,12.8,231,980.69,19.9,81,19.92,0.0,1006.53,270.0
2018-08-25 14:40,50.6304483333333,-96.9807716666667,7.3,11.6,254,980.67,20.2,80,19.94,0.0,1006.49,270.0
2018-08-25 14:50,50.6304466666667,-96.98077,8.1,14.3,276,980.81,20.2,80,19.94,0.0,1006.62,270.0
2018-08-25 15:00,50.6304016666667,-96.980735,11.3,15.8,300,980.87,19.0,68,19.95,0.0,1006.73,144.4
2018-08-25 15:10,50.6304333333333,-96.9807666666667,8.4,13.5,297,981.12,17.7,64,19.95,0.0,1007.05,144.4
2018-08-25 15:20,50.6304366666667,-96.98077,8.3,13.7,288,981.28,17.4,67,19.95,0.0,1007.22,144.4
2018-08-25 15:30,50.6304366666667,-96.9807716666667,9.7,14.6,292,981.46,17.1,67,19.95,0.0,1007.42,144.4
2018-08-25 15:40,50.630435,-96.9807716666667,9.8,14.6,287,981.65,16.5,67,20.09,0.0,1007.64,144.4
2018-08-25 15:50,50.6304366666667,-96.98077,8.5,16.3,279,981.73,16.1,69,19.96,0.0,1007.73,144.4
2018-08-25 16:00,50.6304366666667,-96.98077,6.7,11.8,279,981.86,15.9,70,19.95,0.0,1007.85,142.0
2018-08-25 16:10,50.6304366666667,-96.98077,5.6,9.6,299,981.96,16.1,69,19.95,0.0,1007.93,142.0
2018-08-25 16:20,50.6304216666667,-96.9807833333333,8.8,14.5,300,981.86,16.2,67,19.95,0.0,1007.81,142.0
2018-08-25 16:30,50.6304333333333,-96.9807733333333,6.7,12.8,279,982.03,16.3,66,19.95,0.0,1007.97,142.0
2018-08-25 16:40,50.630435,-96.9807666666667,8.1,14.0,289,982.10,16.6,64,19.94,0.0,1008.03,142.0
2018-08-25 16:50,50.6304333333333,-96.980765,8.6,12.9,287,982.26,16.6,63,19.94,0.0,1008.25,142.0
2018-08-25 17:00,50.6304316666667,-96.9807633333333,7.9,12.9,274,982.34,16.2,63,19.94,0.0,1008.41,142.0
2018-08-25 17:10,50.6304316666667,-96.980765,7.4,11.5,274,982.39,16.2,63,19.94,0.0,1008.48,142.0
2018-08-25 17:20,50.6304433333333,-96.9807983333333,7.6,13.8,278,982.33,16.7,61,19.94,0.0,1008.41,142.0
2018-08-25 17:30,50.63045,-96.9807933333333,7.9,13.7,294,982.38,17.1,59,19.94,0.0,1008.47,142.0
2018-08-25 17:40,50.6304416666667,-96.9807816666667,5.8,9.6,274,982.43,17.3,59,19.94,0.0,1008.52,142.0
2018-08-25 17:50,50.6304433333333,-96.9807816666667,7.0,11.7,287,982.41,17.4,58,19.96,0.0,1008.52,142.0
2018-08-25 18:00,50.6304433333333,-96.9807816666667,5.2,9.9,264,982.53,17.2,58,19.97,0.0,1008.63,317.7
2018-08-25 18:10,50.6304416666667,-96.9807816666667,3.7,6.5,273,982.55,17.3,58,19.99,0.0,1008.64,317.7
2018-08-25 18:20,50.6304416666667,-96.9807783333333,4.7,8.8,274,982.59,17.7,57,19.99,0.0,1008.66,317.7
2018-08-25 18:30,50.6304416666667,-96.9807783333333,5.6,10.2,289,982.64,17.9,55,19.99,0.0,1008.69,317.7
2018-08-25 18:40,50.6304366666667,-96.980765,6.4,10.4,288,982.72,17.9,55,19.99,0.0,1008.78,317.7
2018-08-25 18:50,50.6304366666667,-96.9807633333333,4.2,9.2,268,982.62,18.2,54,19.99,0.0,1008.68,317.7
2018-08-25 19:00,50.6304166666667,-96.9807516666667,5.7,9.3,278,982.67,18.4,53,19.99,0.0,1008.71,165.5
2018-08-25 19:10,50.630445,-96.9807783333333,4.2,8.1,260,982.68,18.5,53,19.99,0.0,1008.69,165.5
2018-08-25 19:20,50.6304433333333,-96.980775,6.3,9.5,236,982.87,18.7,52,20.01,0.0,1008.86,165.5
2018-08-25 19:30,50.6304216666667,-96.98075,6.6,12.5,243,982.93,19.0,52,20.02,0.0,1008.91,165.5
2018-08-25 19:40,50.63044,-96.9807533333333,3.9,8.4,241,982.84,19.2,52,20.02,0.0,1008.81,165.5
2018-08-25 19:50,50.6304383333333,-96.9807733333333,4.1,7.0,263,982.83,19.6,50,20.03,0.0,1008.78,165.5
2018-08-25 20:00,50.63041,-96.980765,4.9,9.9,267,982.90,19.7,49,20.05,0.0,1008.84,360.0
2018-08-25 20:10,50.6304283333333,-96.9807583333333,5.4,10.2,256,983.04,19.9,48,20.08,0.0,1008.97,360.0
2018-08-25 20:20,50.6304333333333,-96.9807616666667,4.9,10.2,251,983.07,20.0,48,20.10,0.0,1008.98,360.0
2018-08-25 20:30,50.630435,-96.980765,6.8,10.6,245,983.17,20.0,48,20.11,0.0,1009.09,360.0
2018-08-25 20:40,50.630435,-96.9807633333333,7.3,11.3,227,983.19,19.7,49,20.12,0.0,1009.10,360.0
2018-08-25 20:50,50.6304466666667,-96.9807733333333,6.6,10.9,230,983.29,19.8,49,20.12,0.0,1009.19,360.0
2018-08-25 21:00,50.6304466666667,-96.9807733333333,6.9,12.8,256,983.35,20.2,47,20.12,0.0,1009.23,54.7
2018-08-25 21:10,50.6304466666667,-96.98077,9.1,12.6,227,983.41,19.9,49,20.12,0.0,1009.29,54.7
2018-08-25 21:20,50.6304483333333,-96.98077,9.4,14.2,215,983.43,19.7,49,20.13,0.0,1009.31,54.7
2018-08-25 21:30,50.6304483333333,-96.98077,9.4,14.1,225,983.49,19.7,49,20.14,0.0,1009.36,54.7
2018-08-25 21:40,50.6304483333333,-96.98077,8.7,11.7,211,983.45,19.5,50,20.16,0.0,1009.31,54.7
2018-08-25 21:50,50.63045,-96.980785,9.6,13.5,224,983.41,19.6,49,20.16,0.0,1009.26,54.7
2018-08-25 22:00,50.63045,-96.9807666666667,8.7,13.5,237,983.41,19.9,48,20.16,0.0,1009.25,360.0
2018-08-25 22:10,50.63045,-96.980765,8.0,13.4,239,983.40,20.3,47,20.16,0.0,1009.21,360.0
2018-08-25 22:20,50.6304483333333,-96.9807616666667,9.2,13.3,235,983.34,20.2,46,20.17,0.0,1009.15,360.0
2018-08-25 22:30,50.6304466666667,-96.98076,10.6,14.5,230,983.31,20.2,45,20.19,0.0,1009.14,360.0
2018-08-25 22:40,50.6304466666667,-96.98076,10.7,15.8,236,983.23,20.3,44,20.20,0.0,1009.05,360.0
2018-08-25 22:50,50.6304466666667,-96.9807616666667,10.0,17.4,243,983.21,20.3,43,20.20,0.0,1009.00,360.0
2018-08-25 23:00,50.6304483333333,-96.9807616666667,8.9,14.2,243,983.26,20.4,44,20.20,0.0,1009.06,4.7
2018-08-25 23:10,50.6304516666667,-96.980765,9.6,13.8,241,983.26,20.5,43,20.20,0.0,1009.07,4.7
2018-08-25 23:20,50.6304433333333,-96.9807633333333,6.4,9.8,258,983.21,20.7,43,20.20,0.0,1009.01,4.7
2018-08-25 23:30,50.6304466666667,-96.9807633333333,6.8,11.8,261,983.17,20.7,43,20.21,0.0,1008.98,4.7
2018-08-25 23:40,50.630445,-96.9807566666667,8.5,14.1,266,983.12,20.5,43,20.21,0.0,1008.93,4.7
2018-08-25 23:50,50.6304466666667,-96.9807583333333,8.0,13.1,271,983.12,20.4,43,20.20,0.0,1008.93,4.7
